Location: Crescent
(42.8242°N, 73.7329°W)
Time: 20:37:22
(UTC+00:00)

Vanguard 2 Rocket - Pass Details

Date: 19 February 2026
Orbit: 553 x 3287 km, 32.9° (Epoch: 7 March)

Event Time Altitude Azimuth Distance (km) Brightness Sun altitude
Rises 16:30:11 0° 230° (SW) 7,196 11.8 35.4°
Reaches altitude 10° 16:35:18 10° 225° (SW) 6,227 11.7 35.5°
Maximum altitude 16:53:29 47° 161° (SSE) 3,560 11.9 36.0°
Drops below altitude 10° 17:06:52 10° 94° (E) 4,702 10.7 36.1°
Sets 17:10:05 0° 88° (E) 5,381 10.8 36.1°
